Racine, WI

2:22 AM CST on November 17, 2019 (GMT -0600)
Batten

Weather History for KRAC - October, 2019

Change the Weather History Date:

Monday, October 21, 2019

  Actual Average Record
Temperature  
Mean Temperature 56 °F -  
Max Temperature 64 °F 57 °F 79 °F (1953)
Min Temperature 48 °F 42 °F 25 °F (1952)
Degree Days  
Heating Degree Days 9    
Growing Degree Days 6 (Base 50)    
Moisture  
Dew Point 48 °F    
Average Humidity 82    
Maximum Humidity 97    
Minimum Humidity 51    
Precipitation  
Precipitation 0.11 in - - ()
Sea Level Pressure  
Sea Level Pressure 29.59 in    
Wind  
Wind Speed 11 mph (SE)    
Max Wind Speed 25 mph    
Max Gust Speed 40 mph    
Visibility 4 miles    
Events Fog , Rain    
Averages and records for this station are not official NWS values.
T = Trace of Precipitation, MM = Missing Value Source: NWS Daily Summary

Daily Weather History Graph

Daily Weather History Graph

Search for Another Location

Airport or City:

Astronomy

Oct. 21, 2019 Rise Set
Actual Time 7:11 AM CDT 5:59 PM CDT
Civil Twilight 6:42 AM CDT 6:28 PM CDT
Nautical Twilight 6:09 AM CDT 7:01 PM CDT
Astronomical Twilight 5:37 AM CDT 7:33 PM CDT
Moon No Moon Rise 2:34 PM CDT (10/21)
Length of Visible Light 11h 45m
Length of Day
10h 48m
Waning Gibbous, 48% of the Moon is Illuminated
Oct 21
Waning Gibbous
Oct 27
New
Nov 4
First Quarter
Nov 12
Full
Nov 19
Last Quarter

Hourly Weather History & Observations

Time (CDT) Temp. Dew Point Humidity Pressure Visibility Wind Dir Wind Speed Gust Speed Precip Events Conditions
12:53 AM 48.9 °F 48.0 °F 97% 29.90 in 0.2 mi East 6.9 mph - N/A Fog Fog
1:53 AM 50.0 °F 48.9 °F 96% 29.88 in 0.2 mi ENE 5.8 mph - N/A Fog Fog
2:53 AM 48.9 °F 48.0 °F 97% 29.86 in 0.2 mi NE 6.9 mph - N/A Fog Fog
3:53 AM 48.9 °F 48.0 °F 97% 29.83 in 0.2 mi NE 4.6 mph - N/A Fog Fog
4:20 AM 50.0 °F 48.9 °F 96% 29.80 in 2.0 mi ENE 5.8 mph - N/A   Overcast
4:29 AM 50.0 °F 48.9 °F 96% 29.80 in 0.8 mi ENE 5.8 mph - N/A   Overcast
4:37 AM 51.1 °F 50.0 °F 96% 29.79 in 1.5 mi ENE 6.9 mph - N/A   Overcast
4:40 AM 51.1 °F 50.0 °F 96% 29.79 in 3.0 mi NE 6.9 mph - N/A   Overcast
4:53 AM 50.0 °F 48.9 °F 96% 29.79 in 3.0 mi NE 5.8 mph - N/A   Overcast
5:53 AM 52.0 °F 50.0 °F 93% 29.74 in 8.0 mi East 6.9 mph - N/A   Overcast
6:53 AM 55.0 °F 50.0 °F 83% 29.68 in 10.0 mi SE 11.5 mph 21.9 mph N/A   Overcast
7:53 AM 55.0 °F 50.0 °F 83% 29.67 in 10.0 mi SE 15.0 mph 21.9 mph N/A   Overcast
8:53 AM 55.9 °F 50.0 °F 80% 29.60 in 10.0 mi ESE 15.0 mph 32.2 mph N/A   Mostly Cloudy
9:53 AM 55.0 °F 51.1 °F 86% 29.53 in - SE 18.4 mph 33.4 mph 0.01 in   Overcast
10:53 AM 55.9 °F 51.1 °F 84% 29.48 in - SE 20.7 mph 29.9 mph N/A   Overcast
11:32 AM 57.0 °F 52.0 °F 83% 29.46 in - SSE 17.3 mph 29.9 mph N/A   Overcast
11:53 AM 55.9 °F 52.0 °F 87% 29.47 in - SSE 21.9 mph 38.0 mph 0.00 in   Overcast
12:15 PM 55.9 °F 52.0 °F 87% 29.45 in - SSE 18.4 mph 38.0 mph N/A   Overcast
12:53 PM 55.0 °F 53.1 °F 93% 29.42 in - SSE 25.3 mph 36.8 mph 0.01 in Rain Light Rain
1:53 PM 55.9 °F 54.0 °F 93% 29.41 in - South 20.7 mph 32.2 mph 0.06 in Rain Light Rain
2:53 PM 57.0 °F 55.0 °F 93% 29.41 in - South 17.3 mph 32.2 mph 0.03 in   Overcast
3:43 PM 57.9 °F 55.0 °F 90% 29.40 in - SSE 11.5 mph 21.9 mph N/A   Scattered Clouds
3:53 PM 59.0 °F 55.0 °F 87% 29.40 in - South 12.7 mph - N/A   Partly Cloudy
4:53 PM 64.0 °F 46.0 °F 52% 29.40 in - SSW 19.6 mph 31.1 mph N/A   Clear
5:53 PM 62.1 °F 44.1 °F 52% 29.44 in - SSW 16.1 mph 34.5 mph N/A   Mostly Cloudy
6:53 PM 57.9 °F 39.9 °F 51% 29.48 in - SW 13.8 mph 28.8 mph N/A   Clear
7:53 PM 57.0 °F 39.0 °F 51% 29.50 in - SW 25.3 mph 40.3 mph N/A   Partly Cloudy
8:53 PM 53.1 °F 37.9 °F 57% 29.51 in - SW 17.3 mph 32.2 mph N/A   Scattered Clouds
9:53 PM 54.0 °F 37.9 °F 55% 29.51 in - SSW 17.3 mph 26.5 mph N/A   Overcast
10:53 PM 52.0 °F 39.0 °F 61% 29.49 in - SSW 13.8 mph 24.2 mph N/A   Scattered Clouds
11:53 PM 52.0 °F 39.0 °F 61% 29.48 in - SSW 16.1 mph 27.6 mph N/A   Clear